www.pogodaiklimat.ru

Погода и климат >> Архив погоды >> Россия >> Калмыкия >> Элиста


АРХИВ ПОГОДЫ в Элисте

Время (UTC), дата Ветер
(напр.,м/с)
 
Видим.   Явления Облачность Т
(С)
Тd
(С)
f
(%)
Тe
(С)
Тes
(С)
Комфортность P
(гПа)
Po
(гПа)
Тmin
(С)
Tmax
(С)
R
(мм)
R24
(мм)
S
(см)
12 18.05 В 6
{13}
20 км 3/0
[Ci fib]
+25.7 +7.5 31 +26 +30 жарко 1010.7 988.4
15 18.05 СВ 5 20 км 8/3 1000 м
[Cu med, cong Ac trans Ci fib]
+23.6 +9.0 39 +24 +25 комфорт 1009.1 986.7 +26.1
18 18.05 В 4 10 км 8/6 600 м
[Cb cap Ac trans]
+20.7 +6.4 39 +22 +22 комфорт 1010.7 988.1
21 18.05 В 4 10 км 6/0
[Ac trans Ci fib]
+17.6 +12.7 73 +17 +17 тепло 1010.3 987.5
00 19.05 В 4 н/о н/о +15.9 +13.0 83 +15 +15 тепло 1010.2 987.2
03 19.05 В 5 20 км 8/0
[Ac trans Ci fib]
+15.0 +10.8 76 +14 +14 по сезону 1010.9 987.9 +14.4
06 19.05 В 6 20 км 5/0
[Ac trans Ci fib]
+20.4 +3.9 34 +21 +24 комфорт 1011.1 988.4
09 19.05 В 4 20 км 8/0
[Ac trans Ci fib]
+24.1 +5.7 31 +24 +30 комфорт 1011.0 988.6
12 19.05 В 2 20 км 8/0
[Ac trans Ci fib]
+25.6 +5.3 27 +25 +32 комфорт 1010.5 988.3
15 19.05 С 3 20 км 10/5 600 м
[Sc Ac trans Ci fib]
+23.1 +7.2 36 +24 +24 комфорт 1011.2 988.7 +25.9
18 19.05 С 3 10 км 8/3 600 м
[Sc Ac trans]
+19.6 +6.4 42 +21 +21 комфорт 1012.8 990.1
21 19.05 СВ 3 10 км 3/0
[Ac trans]
+16.7 +5.0 46 +17 +17 тепло 1012.7 989.7
00 20.05 СВ 2 10 км 3/0
[]
+14.9 +3.8 47 +15 +15 тепло 1014.0 990.8
03 20.05 СВ 3 20 км 6/0
[Ac trans Ci fib]
+15.4 +5.7 52 +15 +16 по сезону 1014.8 991.7 +13.1
06 20.05 СВ 4 20 км 3/0
[Ci fib]
+21.0 +5.0 35 +22 +29 комфорт 1015.6 992.9
09 20.05 СВ 4 20 км 3/0
[Ci fib]
+23.2 +4.0 29 +23 +35 комфорт 1016.2 993.6
12 20.05 СВ 5 20 км 3/0
[Ci fib]
+23.5 +2.8 26 +23 +29 комфорт 1016.3 993.8
15 20.05 СВ 5 20 км 4/0
[Ci fib]
+21.1 +0.7 26 +21 +22 комфорт 1017.0 994.2 +23.9
18 20.05 СВ 5 10 км 4/0
[Ci fib]
+21.1 +0.7 26 +21 +21 комфорт 1017.0 995.8
21 20.05 В 5 10 км ясно +12.4 -3.6 33 +11 +11 прохладно 1019.9 996.4
00 21.05 ЮВ 4 10 км 3/0
[Ci fib]
+10.7 -2.9 38 +9 +9 прохладно 1020.4 996.7
03 21.05 ЮВ 3 20 км 3/0
[Ci fib]
+12.2 -0.6 41 +11 +12 холодно 1021.3 997.7 +9.9
06 21.05 В 4 20 км 3/0
[Ci fib]
+18.9 +0.7 29 +19 +26 по сезону 1021.5 998.4
09 21.05 В 4
{10}
20 км 3/0
[Ci fib]
+21.5 -0.1 24 +21 +33 комфорт 1021.1 998.3
12 21.05 В 4
{10}
20 км 4/0
[Ci fib]
+22.7 -1.3 20 +22 +29 комфорт 1020.2 997.5
15 21.05 ЮВ 4 20 км 5/0
[Ci fib]
+21.2 +0.2 25 +21 +22 комфорт 1019.4 996.5 +23.0
18 21.05 В 4 10 км 8/0
[Ci fib]
+15.6 +0.6 36 +15 +15 прохладно 1020.3 997.0
21 21.05 ЮВ 5 10 км 5/0
[Ci fib]
+13.2 +5.3 59 +11 +11 холодно 1020.5 997.0
00 22.05 ЮВ 5 10 км 5/0
[Ci fib]
+11.1 +4.0 62 +9 +9 прохладно 1020.0 996.4
03 22.05 ЮВ 5 20 км 8/0
[Ci fib]
+12.1 +6.5 69 +10 +10 холодно 1019.7 996.1 +9.8
06 22.05 ЮВ 9-13
{13}
20 км 8/0
[Ac trans Ci fib]
+17.7 +2.1 35 +17 +17 прохладно 1018.2 995.2
09 22.05 ЮВ 8-11
{16}
20 км 9/6 600 м
[Cu hum Ac trans]
+21.2 +1.7 27 +21 +22 комфорт 1015.9 993.2
12 22.05 ЮВ 7-11
{13}
20 км 9/4 1000 м
[Cu hum Ac trans Ci fib]
+22.5 +1.8 26 +22 +23 комфорт 1014.6 992.0
15 22.05 Ю 5
{11}
20 км 10/9 600 м
[Sc Ac trans]
+20.7 +4.7 35 +21 +21 комфорт 1014.4 991.7 +23.2
18 22.05 ЮВ 4 10 км слаб. ливневой дождь 10/10 300 м
[Cb cap]
+17.0 +8.1 56 +17 +17 прохладно 1014.5 991.5
21 22.05 Ю 5 10 км {ливн. осадки} 10/10 300 м
[Cb cap]
+15.0 +8.7 66 +14 +14 по сезону 1013.9 990.7
00 23.05 Ю 4 10 км {ливн. осадки} 10/8 600 м
[Sc Ac trans]
+13.9 +9.0 72 +12 +12 по сезону 1013.3 990.0
03 23.05 Ю 3 20 км 6/3 600 м
[Sc Ac trans]
+13.2 +9.5 78 +12 +13 холодно 1012.9 989.6 +12.6 0.0
06 23.05 З 4 20 км 3/3 1000 м
[Cu med, cong Ac trans Ci fib]
+19.6 +12.9 65 +21 +26 комфорт 1011.5 988.8
09 23.05 З 5-11
{11}
20 км 8/6 600 м
[Cb cap Ac trans Ci fib]
+21.1 +9.5 47 +22 +25 комфорт 1010.3 987.7
12 23.05 СЗ 3
{11}
20 км {ливн. осадки} 8/4 600 м
[Cb cap Ac trans Ci fib]
+22.5 +9.1 42 +24 +28 комфорт 1009.3 986.8
15 23.05 С 3
{19}
20 км {гроза, ливн. осадки} 8/3 600 м
[Cb cap Ac trans Ci fib]
+18.2 +8.4 53 +19 +19 прохладно 1009.8 987.0 +22.7 0.0
18 23.05 ЮЗ 2 10 км {гроза} 9/4 600 м
[Cb cap Ac trans]
+15.4 +8.5 63 +15 +15 прохладно 1010.9 987.9
21 23.05 ЮЗ 4 10 км {ливн. осадки} 9/6 600 м
[Cb cap Ac trans]
+13.8 +10.6 81 +12 +12 прохладно 1010.6 987.5
00 24.05 З 3 4000 м слаб. ливневой дождь 10/8 600 м
[Cb cap Ac und]
+13.6 +11.8 89 +12 +12 по сезону 1010.4 987.2
03 24.05 З 4 10 км {ливн. осадки} 8/4 600 м
[Cb cap Ac trans]
+14.3 +12.2 87 +13 +13 прохладно 1010.0 986.9 +13.3 2
06 24.05 З 5 20 км {ливн. осадки} 8/4 600 м
[Cu hum Ac trans]
+18.9 +13.2 69 +20 +22 по сезону 1010.1 987.4
09 24.05 З 5 20 км 8/4 600 м
[Cu hum Ac trans]
+22.5 +11.5 50 +25 +28 комфорт 1009.5 987.1
12 24.05 СЗ 4
{12}
20 км 9/5 600 м
[Cu hum Ac trans]
+22.5 +10.1 45 +24 +26 комфорт 1009.7 987.3
15 24.05 СЗ 2 20 км 5/3 600 м
[Cu hum Ac trans Ci fib]
+23.6 +9.3 40 +24 +25 комфорт 1009.6 987.2 +24.7
18 24.05 З 2 10 км 4/0
[Ac trans Ci fib]
+20.4 +10.7 54 +23 +23 комфорт 1010.6 988.0
21 24.05 штиль 0 10 км 3/0
[Ci fib]
+18.8 +10.9 60 +19 +19 тепло 1010.9 988.1
00 25.05 В 2 10 км 3/0
[Ci fib]
+17.2 +10.4 64 +18 +18 тепло 1011.2 988.3
03 25.05 В 4 20 км 8/0
[Ci fib]
+17.7 +10.9 64 +17 +18 по сезону 1011.1 988.3 +16.7
06 25.05 В 4 20 км 3/0
[Ac trans Ci fib]
+22.4 +12.1 52 +25 +31 комфорт 1010.5 988.1
09 25.05 ЮВ 7-11
{12}
20 км 6/3 1000 м
[Cu hum Ac trans Ci fib]
+26.5 +8.5 32 +27 +29 жарко 1008.7 986.6

 

Местоположение метеостанции Элиста (Калмыкия, Россия): широта 46.37 долгота 44.33 высота над уровнем моря 153 м.

В архиве по умолчанию представлена погода в Элисте за последнюю неделю. Архивные данные за месяц целиком и за предыдущие месяцы, начиная с января 2011 года, Вы можете получить, выбрав интересующий диапазон дат из раскрывающегося списка и нажав кнопку "Ввод!".


*Определитесь, кто Вы:
робот инопланетянин человек

Внимание! Время в таблицах - всемирное. Для получения местного времени необходимо прибавить поправку, которая равна 3 ч.

Смотрите также архив погоды в соседних городах и на ближайших метеорологических станциях:

Погода в Ремонтном (Ростовская область, Россия) (55 км)
Погода в Ики-Буруле (Калмыкия, Россия) (67 км)
Погода в Яшкуле (Калмыкия, Россия) (81 км)
Погода в Дивном (Ставропольский край, Россия) (91 км)
Погода в Кетченерах (Калмыкия, Россия) (107 км)
Погода в Арзгире (Ставропольский край, Россия) (108 км)
Погода в Утте (Калмыкия, Россия) (130 км)
Погода в Благодарном (Ставропольский край, Россия) (157 км)
Погода в Светлограде (Ставропольский край, Россия) (161 км)
Погода в Зимовниках (Ростовская область, Россия) (166 км)

Пояснения к столбцам:

Ветер - указаны скорость ветра в м/с - средняя за 10 мин, порывы в срок и между сроками (в фигурных скобках) и направление, откуда дует ветер: С - северный, СВ - северо-восточный, В - восточный, ЮВ - юго-восточный, Ю - южный, ЮЗ - юго-западный, З - западный, СЗ - северо-западный.
Видимость - горизонтальная дальность видимости в метрах или километрах. При видимости от 1 до 10 км при отсутствии осадков обычно наблюдается дымка, при ухудшении видимости до 1 км и менее - туман. В сухую погоду видимость может ухудшаться дымом, пылью или мглою.
Явления - указаны атмосферные явления, наблюдавшиеся в срок или в последний час перед сроком; фигурными скобками обозначены явления, наблюдавшиеся между сроками (за 1-3 часа до срока); квадратными скобками обозначены град или гололедные отложения с указанием их диаметра в мм.
Облачность - указаны через наклонную черту общая и нижняя облачность в баллах и высота нижней границы облаков в метрах; квадратными скобками обозначены формы облаков: Ci - перистые, Cs - перисто-слоистые, Cc - перисто-кучевые, Ac - высококучевые, As - высокослоистые, Sc - слоисто-кучевые, Ns - слоисто-дождевые, Cu - кучевые, Cb - кучево-дождевые. Подробнее классификацию облаков см. в Атласе облаков (PDF).
T - Температура воздуха - температура, измеренная на высоте 2 м над землей.
Td - Температура точки росы - температура, при понижении до которой содержащийся в воздухе водяной пар достигнет насыщения.
f - Относительная влажность воздуха - влажноcть воздуха, измеренная на высоте 2 м над землей.
Te - Эффективная температура - температура, которую ощущает одетый по сезону человек в тени. Характеристика душности погоды. При расчете учитывается влияние влажности воздуха и скорости ветра на теплоощущения человека.
Tes - Эффективная температура на солнце - температура, которую ощущает человек, с поправкой на солнечный нагрев. Характеристика знойности погоды. Зависит от высоты солнца над горизонтом, облачности и скорости ветра. Ночью, в пасмурную погоду, а также при ветре 12 м/с и более поправка равна нулю.
P - Атмосферное давление - приведенное к уровню моря атмосферное давление.
Po - Атмосферное давление - измеренное на уровне метеостанции атмосферное давление.
Tmin - Минимальная температура - минимум температуры воздуха на высоте 2 м над землей.
Tmax - Максимальная температура - максимум температуры воздуха на высоте 2 м над землей.
R - Количество осадков - Количество выпавших осадков за период времени, мм. При наведении курсора мыши на число - период времени, за который выпало указанное количество осадков.
R24 - Количество осадков - Количество выпавших осадков за 24 часа, мм.
S - Снежный покров - Высота снежного покрова, см. При наведении курсора мыши на число - состояние снежного покрова и степень покрытия местности в баллах.